Location: Grandview
(34.8900°N, 117.1058°W)
Time: 07:09:00
(UTC-08:00)

Hubble Space Telescope - Pass Details

Date: 07 October 2017
Orbit: 537 x 541 km, 28.5° (Epoch: 13 December)

Event Time Altitude Azimuth Distance (km) Brightness Sun altitude
Exits shadow 04:12:45 13° 116° (ESE) 1,579 3.6 -32.3°
Drops below altitude 10° 04:13:22 10° 112° (ESE) 1,787 4.0 -32.2°
Sets 04:15:47 0° 102° (ESE) 2,679 5.2 -31.7°
